datetime,北海道電力,東北電力,東京電力,北陸電力,中部電力,関西電力,中国電力,四国電力,九州電力,沖縄電力
2016-04-01 00:00:00,317,789,2555,293,1237.2,1295,581,249,745,64
2016-04-01 01:00:00,328,816,2433,307,1212.9,1280,600,261,766,63
2016-04-01 02:00:00,339,842,2393,327,1227.3,1331,640,287,818,64
2016-04-01 03:00:00,347,858,2375,337,1236.2,1359,665,301,880,66
2016-04-01 04:00:00,360,881,2390,339,1222.7,1334,658,299,892,65
2016-04-01 05:00:00,355,911,2467,332,1229.3,1294,622,282,877,63
2016-04-01 06:00:00,340,903,2631,322,1279.9,1331,621,266,882,65
2016-04-01 07:00:00,324,865,2775,310,1375.5,1424,644,268,915,69
2016-04-01 08:00:00,338,908,2965,321,1551.4,1577,682,308,944,72
2016-04-01 09:00:00,350,943,3159,336,1682.1,1711,735,329,976,74
2016-04-01 10:00:00,349,947,3211,338,1695.6,1747,740,335,992,75
2016-04-01 11:00:00,350,940,3265,340,1693.4,1752,727,331,986,76
2016-04-01 12:00:00,332,878,3160,317,1585.4,1649,667,310,926,76
2016-04-01 13:00:00,336,897,3288,334,1690.4,1679,705,325,976,79
2016-04-01 14:00:00,336,901,3361,336,1694.6,1712,714,326,940,80
2016-04-01 15:00:00,335,898,3362,330,1658.1,1726,710,320,950,81
2016-04-01 16:00:00,345,913,3406,328,1660.2,1747,700,317,962,83
2016-04-01 17:00:00,352,920,3438,322,1622.0,1736,687,315,962,83
2016-04-01 18:00:00,375,960,3501,328,1640.8,1753,704,321,993,83
2016-04-01 19:00:00,372,935,3381,322,1582.4,1715,693,316,994,86
2016-04-01 20:00:00,351,889,3242,308,1513.3,1638,668,303,953,83
2016-04-01 21:00:00,338,844,3084,297,1459.1,1557,635,285,909,79
2016-04-01 22:00:00,321,824,2973,292,1399.4,1487,620,266,878,76
2016-04-01 23:00:00,326,815,2811,288,1351.6,1410,601,257,813,72
2016-04-02 00:00:00,318,785,2613,284,1245.9,1333,589,257,749,68
2016-04-02 01:00:00,327,807,2492,293,1210.0,1295,597,261,766,65
2016-04-02 02:00:00,334,832,2431,316,1213.1,1343,637,287,806,67
2016-04-02 03:00:00,342,845,2403,324,1212.9,1359,662,302,860,68
2016-04-02 04:00:00,349,866,2390,324,1184.2,1333,657,301,876,68
2016-04-02 05:00:00,343,881,2432,310,1151.6,1276,615,283,853,66
2016-04-02 06:00:00,326,853,2543,290,1125.0,1250,594,261,817,64
2016-04-02 07:00:00,318,835,2734,274,1152.7,1283,601,243,798,67
2016-04-02 08:00:00,332,905,3019,275,1242.6,1383,630,274,810,73
2016-04-02 09:00:00,341,954,3225,282,1302.1,1451,638,302,825,79
2016-04-02 10:00:00,331,952,3258,281,1301.3,1470,623,308,833,81
2016-04-02 11:00:00,327,970,3239,278,1280.7,1480,610,311,841,84
2016-04-02 12:00:00,310,918,3167,267,1227.9,1412,588,302,827,84
2016-04-02 13:00:00,314,918,3112,270,1235.3,1433,611,298,825,85
2016-04-02 14:00:00,317,901,3049,270,1239.1,1424,620,289,823,84
2016-04-02 15:00:00,323,889,3043,267,1216.6,1433,620,287,820,84
2016-04-02 16:00:00,333,902,3098,267,1222.6,1459,614,290,835,82
2016-04-02 17:00:00,347,918,3216,268,1261.6,1481,615,279,850,83
2016-04-02 18:00:00,371,958,3328,280,1336.0,1542,641,293,900,85
2016-04-02 19:00:00,364,942,3276,278,1311.2,1549,645,294,920,88
2016-04-02 20:00:00,351,907,3173,269,1261.9,1509,625,282,879,86
2016-04-02 21:00:00,341,855,3007,256,1202.4,1437,592,268,837,82
2016-04-02 22:00:00,325,796,2856,254,1146.1,1363,561,244,788,77
2016-04-02 23:00:00,334,783,2674,251,1109.9,1305,546,235,739,72
2016-04-03 00:00:00,322,747,2455,246,1068.9,1242,536,228,690,67
2016-04-03 01:00:00,325,764,2325,256,1056.9,1222,548,237,705,65
2016-04-03 02:00:00,335,786,2280,278,1075.6,1268,600,262,763,66
2016-04-03 03:00:00,340,805,2265,285,1082.5,1293,629,281,810,67
2016-04-03 04:00:00,347,824,2253,286,1063.6,1261,619,278,817,67
2016-04-03 05:00:00,338,824,2276,268,1029.7,1182,576,256,788,64
2016-04-03 06:00:00,315,786,2330,246,998.0,1146,544,228,743,60
2016-04-03 07:00:00,306,750,2493,229,1028.6,1179,546,218,734,63
2016-04-03 08:00:00,314,788,2700,230,1076.8,1246,550,227,736,67
2016-04-03 09:00:00,327,804,2832,236,1126.5,1287,543,231,751,71
2016-04-03 10:00:00,323,808,2835,241,1126.0,1299,523,239,751,72
2016-04-03 11:00:00,314,803,2833,242,1122.9,1324,540,239,741,76
2016-04-03 12:00:00,305,789,2820,240,1111.6,1344,546,239,757,75
2016-04-03 13:00:00,299,756,2738,241,1107.5,1323,556,241,755,76
2016-04-03 14:00:00,293,757,2694,238,1092.7,1335,574,242,759,77
2016-04-03 15:00:00,295,768,2684,242,1098.9,1352,569,249,769,76
2016-04-03 16:00:00,307,792,2755,247,1130.1,1381,577,258,802,78
2016-04-03 17:00:00,326,852,2920,262,1208.9,1445,610,274,854,81
2016-04-03 18:00:00,351,900,3132,275,1287.5,1525,643,291,900,86
2016-04-03 19:00:00,347,887,3114,272,1278.1,1527,637,286,897,89
2016-04-03 20:00:00,338,861,3020,266,1243.4,1484,617,274,867,86
2016-04-03 21:00:00,327,813,2860,253,1197.5,1422,591,259,822,83
2016-04-03 22:00:00,312,761,2690,246,1132.7,1349,560,239,777,78
2016-04-03 23:00:00,315,740,2494,244,1090.6,1282,543,229,725,73
2016-04-04 00:00:00,307,712,2304,241,1039.3,1222,532,226,710,67
2016-04-04 01:00:00,319,740,2206,257,1038.0,1210,551,240,730,66
2016-04-04 02:00:00,329,772,2179,281,1061.2,1271,589,263,784,67
2016-04-04 03:00:00,335,793,2189,291,1079.9,1311,627,281,835,69
2016-04-04 04:00:00,344,817,2216,295,1089.0,1289,621,281,857,69
2016-04-04 05:00:00,341,852,2320,288,1104.2,1253,591,267,842,68
2016-04-04 06:00:00,328,871,2528,285,1172.1,1299,589,253,844,69
2016-04-04 07:00:00,323,880,2835,293,1320.5,1425,605,259,876,76
2016-04-04 08:00:00,348,973,3168,330,1537.0,1577,658,297,927,82
2016-04-04 09:00:00,362,1039,3418,354,1655.9,1673,696,315,968,88
2016-04-04 10:00:00,360,1046,3480,363,1658.8,1701,661,306,980,90
2016-04-04 11:00:00,360,1041,3422,365,1665.1,1718,655,312,979,90
2016-04-04 12:00:00,331,953,3200,342,1549.0,1611,612,294,923,88
2016-04-04 13:00:00,339,1009,3323,363,1665.8,1735,667,309,949,91
2016-04-04 14:00:00,335,1002,3322,365,1661.0,1744,672,316,971,90
2016-04-04 15:00:00,332,978,3312,361,1616.6,1726,678,315,948,89
2016-04-04 16:00:00,342,999,3349,361,1615.6,1734,683,315,962,89
2016-04-04 17:00:00,351,997,3346,356,1584.1,1726,684,309,968,88
2016-04-04 18:00:00,382,1017,3436,360,1614.9,1745,702,311,998,90
2016-04-04 19:00:00,371,981,3337,348,1558.0,1706,692,303,1002,92
2016-04-04 20:00:00,355,935,3213,330,1490.4,1634,666,286,958,88
2016-04-04 21:00:00,341,879,3067,317,1454.4,1567,640,269,907,84
2016-04-04 22:00:00,320,864,2982,310,1393.7,1511,617,250,874,77
2016-04-04 23:00:00,321,860,2797,305,1346.1,1430,597,238,815,72
2016-04-05 00:00:00,308,833,2551,294,1267.0,1354,582,240,765,66
2016-04-05 01:00:00,318,860,2427,305,1249.2,1319,593,251,783,64
2016-04-05 02:00:00,328,886,2392,325,1254.8,1361,633,277,841,65
2016-04-05 03:00:00,335,900,2380,334,1270.4,1396,660,295,889,67
2016-04-05 04:00:00,344,922,2415,332,1260.8,1379,661,298,909,67
2016-04-05 05:00:00,339,944,2524,325,1262.7,1345,639,284,901,66
2016-04-05 06:00:00,323,927,2767,318,1295.8,1371,637,271,893,68
2016-04-05 07:00:00,313,880,3056,317,1376.6,1458,634,266,873,75
2016-04-05 08:00:00,333,939,3400,337,1567.8,1594,648,293,877,84
2016-04-05 09:00:00,343,963,3678,355,1683.8,1689,647,306,919,90
2016-04-05 10:00:00,344,959,3747,351,1660.4,1732,640,317,924,91
2016-04-05 11:00:00,348,955,3727,349,1637.3,1728,648,323,920,89
2016-04-05 12:00:00,322,894,3532,322,1526.7,1623,625,307,880,88
2016-04-05 13:00:00,330,926,3670,338,1652.8,1671,677,327,915,91
2016-04-05 14:00:00,327,923,3640,334,1655.0,1667,666,323,909,90
2016-04-05 15:00:00,330,898,3589,334,1622.1,1666,674,313,903,90
2016-04-05 16:00:00,341,905,3579,334,1614.7,1685,675,311,916,91
2016-04-05 17:00:00,349,917,3579,328,1572.5,1665,672,306,935,92
2016-04-05 18:00:00,376,965,3664,339,1619.3,1708,696,316,983,94
2016-04-05 19:00:00,365,939,3559,334,1582.2,1708,699,316,994,95
2016-04-05 20:00:00,347,901,3414,322,1519.0,1636,676,300,957,92
2016-04-05 21:00:00,334,850,3234,310,1478.0,1567,643,285,906,87
2016-04-05 22:00:00,315,836,3135,306,1416.7,1517,620,281,870,81
2016-04-05 23:00:00,317,830,2913,302,1375.5,1437,597,273,820,75
2016-04-06 00:00:00,307,784,2634,293,1311.2,1352,586,268,764,68
2016-04-06 01:00:00,322,807,2496,304,1284.6,1324,594,276,781,66
2016-04-06 02:00:00,332,831,2451,325,1284.4,1374,637,300,836,67
2016-04-06 03:00:00,339,855,2440,335,1299.1,1410,671,322,884,69
2016-04-06 04:00:00,347,878,2478,335,1297.8,1397,662,324,907,68
2016-04-06 05:00:00,342,901,2593,328,1298.2,1364,639,309,895,67
2016-04-06 06:00:00,329,871,2787,322,1347.8,1383,647,293,895,69
2016-04-06 07:00:00,315,848,2955,310,1432.2,1456,640,282,881,75
2016-04-06 08:00:00,328,911,3143,327,1609.4,1594,667,309,896,85
2016-04-06 09:00:00,343,951,3301,340,1692.8,1697,677,324,918,91
2016-04-06 10:00:00,350,949,3304,342,1684.2,1716,659,328,911,94
2016-04-06 11:00:00,347,941,3276,341,1686.5,1712,660,334,920,95
2016-04-06 12:00:00,317,878,3106,315,1542.2,1611,635,311,882,93
2016-04-06 13:00:00,328,919,3216,332,1643.3,1694,673,334,926,96
2016-04-06 14:00:00,322,912,3282,333,1641.7,1694,684,331,918,96
2016-04-06 15:00:00,324,901,3258,329,1611.5,1675,678,322,912,97
2016-04-06 16:00:00,338,907,3270,329,1616.3,1682,697,326,943,98
2016-04-06 17:00:00,345,909,3262,326,1583.7,1668,685,320,967,97
2016-04-06 18:00:00,372,962,3392,331,1630.1,1700,691,327,992,97
2016-04-06 19:00:00,363,941,3319,322,1590.0,1681,682,320,976,99
2016-04-06 20:00:00,347,902,3206,310,1521.8,1613,651,303,932,95
2016-04-06 21:00:00,334,853,3055,304,1466.9,1548,618,285,887,90
2016-04-06 22:00:00,320,845,2948,300,1405.2,1483,597,270,844,84
2016-04-06 23:00:00,322,831,2746,294,1348.4,1403,582,262,802,77
2016-04-07 00:00:00,312,802,2512,284,1254.8,1324,565,256,766,71
2016-04-07 01:00:00,323,825,2387,296,1235.0,1292,571,265,780,68
2016-04-07 02:00:00,333,843,2349,317,1243.8,1348,613,291,827,68
2016-04-07 03:00:00,341,858,2344,326,1246.7,1383,651,308,886,70
2016-04-07 04:00:00,347,876,2367,327,1241.5,1372,642,310,901,70
2016-04-07 05:00:00,340,901,2462,319,1240.9,1334,608,296,884,69
2016-04-07 06:00:00,326,909,2695,315,1327.1,1373,615,277,881,71
2016-04-07 07:00:00,320,906,3010,317,1439.2,1485,640,281,914,78
2016-04-07 08:00:00,339,987,3362,348,1651.7,1665,713,322,958,87
2016-04-07 09:00:00,349,1050,3656,370,1769.7,1816,760,339,1006,93
2016-04-07 10:00:00,346,1059,3764,371,1791.3,1861,762,340,1023,95
2016-04-07 11:00:00,347,1061,3788,373,1789.4,1878,758,337,1029,98
2016-04-07 12:00:00,319,999,3629,348,1667.1,1766,706,319,976,96
2016-04-07 13:00:00,346,1054,3740,366,1791.8,1841,739,348,1015,99
2016-04-07 14:00:00,357,1056,3717,366,1796.3,1846,743,341,1022,98
2016-04-07 15:00:00,363,1042,3656,364,1764.1,1836,729,342,1013,100
2016-04-07 16:00:00,370,1051,3654,366,1770.5,1836,729,343,1013,101
2016-04-07 17:00:00,375,1036,3605,362,1738.9,1817,720,341,1009,99
2016-04-07 18:00:00,385,1032,3637,359,1718.0,1813,717,340,1018,99
2016-04-07 19:00:00,372,989,3498,343,1650.1,1738,701,326,993,101
2016-04-07 20:00:00,355,934,3334,326,1564.4,1647,673,310,956,98
2016-04-07 21:00:00,342,872,3161,311,1498.1,1565,640,288,905,93
2016-04-07 22:00:00,319,853,3008,306,1422.8,1495,621,272,847,86
2016-04-07 23:00:00,325,836,2790,299,1355.8,1410,601,265,790,80
2016-04-08 00:00:00,312,802,2557,292,1272.6,1326,593,256,731,73
2016-04-08 01:00:00,322,821,2440,300,1248.3,1298,607,263,750,70
2016-04-08 02:00:00,334,845,2403,323,1257.4,1350,644,287,799,70
2016-04-08 03:00:00,339,867,2389,329,1264.3,1383,676,306,865,72
2016-04-08 04:00:00,348,897,2418,331,1257.9,1365,672,309,883,71
2016-04-08 05:00:00,345,903,2488,321,1254.9,1327,650,295,883,71
2016-04-08 06:00:00,333,891,2652,311,1303.7,1347,658,282,888,72
2016-04-08 07:00:00,323,860,2828,307,1385.7,1443,659,264,892,79
2016-04-08 08:00:00,350,910,3070,330,1573.1,1587,694,294,909,87
2016-04-08 09:00:00,359,966,3270,347,1673.2,1703,710,315,934,92
2016-04-08 10:00:00,367,954,3340,347,1676.4,1738,721,320,944,96
2016-04-08 11:00:00,368,949,3301,341,1658.0,1708,734,314,950,94
2016-04-08 12:00:00,348,888,3153,320,1521.2,1604,706,295,892,92
2016-04-08 13:00:00,359,922,3319,339,1630.8,1677,737,318,928,96
2016-04-08 14:00:00,357,926,3308,341,1631.6,1674,719,311,929,98
2016-04-08 15:00:00,348,916,3274,335,1603.3,1669,698,306,915,99
2016-04-08 16:00:00,353,928,3274,332,1584.5,1654,699,312,922,100
2016-04-08 17:00:00,355,920,3255,324,1550.6,1629,679,309,929,99
2016-04-08 18:00:00,376,952,3337,332,1587.7,1660,686,317,967,99
2016-04-08 19:00:00,367,929,3240,327,1568.7,1662,686,316,980,99
2016-04-08 20:00:00,351,886,3118,313,1506.7,1598,664,304,938,95
2016-04-08 21:00:00,340,838,2982,305,1452.7,1528,648,282,893,90
2016-04-08 22:00:00,323,831,2883,297,1391.3,1471,631,265,862,84
2016-04-08 23:00:00,328,819,2709,292,1347.9,1406,613,257,817,78
2016-04-09 00:00:00,317,782,2484,282,1275.0,1325,592,251,767,72
2016-04-09 01:00:00,326,801,2369,292,1253.9,1291,599,260,777,68
2016-04-09 02:00:00,335,824,2336,312,1260.0,1342,640,285,823,68
2016-04-09 03:00:00,342,838,2328,320,1263.5,1371,675,304,875,70
2016-04-09 04:00:00,348,854,2327,322,1241.8,1342,667,302,893,70
2016-04-09 05:00:00,338,857,2334,305,1212.2,1276,626,282,862,67
2016-04-09 06:00:00,322,821,2361,287,1187.1,1240,609,252,838,67
2016-04-09 07:00:00,316,777,2473,270,1226.3,1290,605,241,811,73
2016-04-09 08:00:00,331,805,2637,271,1321.0,1385,619,250,814,83
2016-04-09 09:00:00,336,833,2765,279,1380.9,1461,614,262,836,90
2016-04-09 10:00:00,331,837,2805,277,1378.8,1465,585,274,854,92
2016-04-09 11:00:00,327,840,2822,277,1355.6,1486,598,270,852,94
2016-04-09 12:00:00,316,819,2777,269,1307.2,1433,598,261,829,93
2016-04-09 13:00:00,313,826,2850,270,1323.2,1456,617,270,845,92
2016-04-09 14:00:00,299,810,2838,268,1300.5,1448,606,268,837,91
2016-04-09 15:00:00,298,800,2814,265,1260.3,1435,606,266,824,89
2016-04-09 16:00:00,310,801,2815,267,1247.7,1456,611,265,835,90
2016-04-09 17:00:00,325,828,2876,268,1256.8,1459,614,268,864,90
2016-04-09 18:00:00,355,892,3053,281,1324.8,1522,638,281,916,94
2016-04-09 19:00:00,352,880,3019,280,1314.3,1541,647,287,929,95
2016-04-09 20:00:00,338,853,2927,271,1266.9,1506,619,274,899,92
2016-04-09 21:00:00,329,810,2764,262,1206.1,1443,599,259,854,88
2016-04-09 22:00:00,317,763,2666,255,1137.9,1364,567,241,817,83
2016-04-09 23:00:00,323,750,2516,253,1095.9,1305,552,234,757,78
2016-04-10 00:00:00,312,718,2347,246,1042.8,1236,548,228,694,73
2016-04-10 01:00:00,320,744,2248,256,1037.5,1212,558,239,718,70
2016-04-10 02:00:00,330,764,2230,279,1065.0,1265,593,263,780,70
2016-04-10 03:00:00,333,779,2233,289,1082.0,1301,634,284,826,71
2016-04-10 04:00:00,339,790,2231,286,1066.7,1278,628,286,842,72
2016-04-10 05:00:00,327,795,2217,273,1034.5,1207,594,269,810,69
2016-04-10 06:00:00,300,756,2215,249,991.7,1154,562,235,751,67
2016-04-10 07:00:00,278,721,2299,233,1021.7,1174,564,221,728,71
2016-04-10 08:00:00,279,736,2408,236,1066.2,1240,575,233,724,77
2016-04-10 09:00:00,292,753,2541,240,1114.3,1284,586,244,745,78
2016-04-10 10:00:00,299,768,2601,242,1116.9,1287,587,247,739,79
2016-04-10 11:00:00,304,757,2608,243,1113.3,1278,590,247,729,80
2016-04-10 12:00:00,291,735,2661,241,1095.4,1290,589,247,732,82
2016-04-10 13:00:00,285,707,2644,240,1093.3,1270,567,241,723,84
2016-04-10 14:00:00,276,710,2625,239,1092.0,1277,543,236,715,80
2016-04-10 15:00:00,277,715,2629,240,1096.7,1301,556,242,725,81
2016-04-10 16:00:00,287,745,2672,245,1115.6,1331,579,252,742,83
2016-04-10 17:00:00,313,808,2806,262,1172.6,1388,607,267,813,87
2016-04-10 18:00:00,354,874,3005,278,1263.9,1493,636,285,889,92
2016-04-10 19:00:00,350,870,2983,281,1268.3,1515,643,289,910,94
2016-04-10 20:00:00,340,846,2889,272,1230.3,1471,626,277,879,91
2016-04-10 21:00:00,331,801,2750,262,1179.2,1413,594,262,834,87
2016-04-10 22:00:00,315,752,2592,251,1107.0,1336,562,245,767,80
2016-04-10 23:00:00,321,739,2426,249,1058.9,1268,540,234,719,75
2016-04-11 00:00:00,313,711,2238,246,1013.2,1198,532,228,690,69
2016-04-11 01:00:00,321,740,2150,261,1018.1,1179,545,239,709,66
2016-04-11 02:00:00,330,770,2149,289,1040.3,1236,586,263,760,68
2016-04-11 03:00:00,335,802,2171,304,1060.8,1283,629,284,820,70
2016-04-11 04:00:00,345,837,2215,312,1066.5,1273,626,285,854,70
2016-04-11 05:00:00,342,881,2324,308,1088.8,1252,600,274,853,70
2016-04-11 06:00:00,329,903,2546,314,1169.2,1312,623,265,856,72
2016-04-11 07:00:00,318,894,2823,317,1297.7,1407,627,266,860,78
2016-04-11 08:00:00,339,957,3116,346,1529.0,1529,666,296,896,83
2016-04-11 09:00:00,357,995,3339,364,1647.6,1635,694,300,929,88
2016-04-11 10:00:00,362,992,3367,363,1659.9,1655,690,302,915,89
2016-04-11 11:00:00,374,979,3333,362,1666.5,1646,687,319,912,87
2016-04-11 12:00:00,344,921,3193,337,1532.4,1572,648,292,873,82
2016-04-11 13:00:00,362,972,3313,355,1632.6,1647,685,317,906,85
2016-04-11 14:00:00,365,980,3332,353,1631.0,1647,679,319,896,85
2016-04-11 15:00:00,364,976,3338,350,1608.9,1640,678,314,884,86
2016-04-11 16:00:00,374,994,3401,355,1617.5,1674,689,319,896,87
2016-04-11 17:00:00,377,1011,3474,354,1588.7,1687,682,319,913,87
2016-04-11 18:00:00,399,1054,3634,366,1654.0,1753,701,322,971,88
2016-04-11 19:00:00,387,1020,3556,358,1634.6,1768,713,324,999,90
2016-04-11 20:00:00,371,978,3438,343,1576.3,1705,690,312,972,87
2016-04-11 21:00:00,358,916,3304,332,1537.5,1635,669,295,922,82
2016-04-11 22:00:00,339,898,3221,323,1473.6,1574,633,280,875,77
2016-04-11 23:00:00,339,887,2999,317,1425.7,1483,616,268,817,70
2016-04-12 00:00:00,324,858,2702,308,1346.0,1393,607,260,763,65
2016-04-12 01:00:00,334,877,2566,321,1329.5,1364,623,270,777,62
2016-04-12 02:00:00,344,903,2526,343,1339.4,1411,659,296,824,64
2016-04-12 03:00:00,350,912,2526,354,1347.7,1442,696,319,882,66
2016-04-12 04:00:00,357,926,2566,351,1336.7,1428,697,322,907,66
2016-04-12 05:00:00,353,938,2687,345,1341.9,1407,681,314,911,65
2016-04-12 06:00:00,346,948,2949,343,1405.6,1466,688,305,916,67
2016-04-12 07:00:00,335,905,3095,330,1476.3,1535,674,285,896,75
2016-04-12 08:00:00,346,949,3286,343,1657.1,1646,686,300,888,84
2016-04-12 09:00:00,349,977,3447,355,1745.8,1732,690,313,917,90
2016-04-12 10:00:00,354,960,3472,354,1742.5,1729,683,321,918,92
2016-04-12 11:00:00,360,949,3447,351,1720.3,1722,700,319,929,91
2016-04-12 12:00:00,337,895,3257,327,1557.4,1609,657,303,886,86
2016-04-12 13:00:00,348,935,3380,345,1672.6,1684,706,325,916,88
2016-04-12 14:00:00,340,938,3381,345,1667.7,1697,697,308,903,89
2016-04-12 15:00:00,340,924,3364,343,1630.9,1678,681,304,888,89
2016-04-12 16:00:00,346,934,3412,345,1639.6,1677,688,313,912,88
2016-04-12 17:00:00,354,943,3461,341,1631.3,1683,689,316,932,88
2016-04-12 18:00:00,380,998,3617,352,1672.2,1725,715,327,987,89
2016-04-12 19:00:00,373,979,3543,347,1627.4,1725,718,328,993,91
2016-04-12 20:00:00,356,937,3403,334,1554.6,1652,690,315,951,88
2016-04-12 21:00:00,343,887,3241,324,1496.8,1574,663,295,896,84
2016-04-12 22:00:00,320,861,3106,315,1419.7,1502,636,277,854,78
2016-04-12 23:00:00,318,843,2860,308,1358.6,1412,611,266,801,72
2016-04-13 00:00:00,308,809,2606,298,1275.0,1322,593,261,747,66
2016-04-13 01:00:00,317,831,2471,308,1247.6,1287,606,272,764,64
2016-04-13 02:00:00,325,854,2440,325,1254.0,1343,643,297,814,65
2016-04-13 03:00:00,335,868,2439,336,1267.1,1373,672,316,863,67
2016-04-13 04:00:00,345,891,2456,336,1252.8,1352,670,316,886,67
2016-04-13 05:00:00,337,910,2559,327,1258.5,1316,645,304,882,66
2016-04-13 06:00:00,327,907,2808,317,1336.0,1358,652,290,876,67
2016-04-13 07:00:00,322,884,3062,308,1445.1,1465,632,275,856,74
2016-04-13 08:00:00,349,946,3340,327,1628.5,1623,646,303,866,83
2016-04-13 09:00:00,364,991,3577,341,1734.9,1715,651,319,917,91
2016-04-13 10:00:00,369,981,3588,344,1735.2,1699,653,316,926,97
2016-04-13 11:00:00,364,972,3552,341,1720.0,1716,666,323,950,93
2016-04-13 12:00:00,346,900,3350,314,1590.9,1657,625,305,897,88
2016-04-13 13:00:00,360,931,3474,337,1687.7,1741,698,325,946,90
2016-04-13 14:00:00,367,942,3385,341,1692.6,1784,723,335,963,89
2016-04-13 15:00:00,366,918,3347,340,1674.2,1733,730,327,970,85
2016-04-13 16:00:00,373,942,3398,342,1685.8,1753,736,330,1001,88
2016-04-13 17:00:00,373,947,3443,339,1665.3,1752,726,327,1006,90
2016-04-13 18:00:00,388,972,3518,344,1666.8,1760,732,333,1026,94
2016-04-13 19:00:00,376,940,3401,331,1600.9,1704,703,324,1006,94
2016-04-13 20:00:00,358,896,3256,318,1531.1,1625,673,309,955,91
2016-04-13 21:00:00,344,844,3121,309,1482.1,1548,645,289,893,86
2016-04-13 22:00:00,322,826,3026,301,1411.5,1479,625,274,857,80
2016-04-13 23:00:00,321,808,2809,292,1354.5,1399,597,265,809,73
2016-04-14 00:00:00,307,776,2574,281,1271.0,1318,578,257,755,67
2016-04-14 01:00:00,318,796,2449,294,1238.6,1288,597,266,768,65
2016-04-14 02:00:00,328,818,2429,314,1250.0,1335,632,289,817,65
2016-04-14 03:00:00,335,833,2435,325,1256.1,1362,668,308,872,68
2016-04-14 04:00:00,345,853,2452,323,1242.7,1340,666,309,890,68
2016-04-14 05:00:00,339,866,2538,312,1237.6,1294,639,294,877,67
2016-04-14 06:00:00,328,864,2732,303,1295.7,1320,628,281,873,68
2016-04-14 07:00:00,324,854,2978,299,1389.2,1417,631,272,855,72
2016-04-14 08:00:00,341,907,3278,321,1571.4,1551,665,296,869,75
2016-04-14 09:00:00,354,956,3494,337,1684.4,1662,679,305,917,78
2016-04-14 10:00:00,359,953,3554,338,1691.4,1681,692,306,944,78
2016-04-14 11:00:00,345,926,3542,343,1684.1,1693,694,328,964,79
2016-04-14 12:00:00,332,864,3357,320,1553.7,1593,654,314,907,75
2016-04-14 13:00:00,354,905,3474,338,1665.3,1661,693,327,939,79
2016-04-14 14:00:00,354,920,3429,339,1663.3,1673,705,326,932,79
2016-04-14 15:00:00,348,905,3350,333,1637.1,1685,706,325,924,80
2016-04-14 16:00:00,352,911,3379,334,1627.5,1698,708,324,932,83
2016-04-14 17:00:00,358,914,3376,331,1578.4,1679,689,318,947,85
2016-04-14 18:00:00,377,946,3463,338,1599.8,1692,694,319,969,88
2016-04-14 19:00:00,366,919,3373,327,1557.6,1678,693,317,986,92
2016-04-14 20:00:00,347,875,3218,314,1486.9,1583,665,301,941,89
2016-04-14 21:00:00,334,821,3064,303,1432.8,1508,638,284,880,85
2016-04-14 22:00:00,311,808,2950,297,1365.3,1447,612,264,835,79
2016-04-14 23:00:00,314,787,2760,288,1308.4,1374,590,255,782,73
2016-04-15 00:00:00,300,755,2562,280,1235.5,1288,577,253,734,67
2016-04-15 01:00:00,311,776,2437,291,1210.8,1261,587,262,738,64
2016-04-15 02:00:00,324,799,2403,314,1214.1,1312,630,286,785,65
2016-04-15 03:00:00,331,815,2417,324,1235.6,1345,667,308,840,67
2016-04-15 04:00:00,337,834,2446,322,1225.8,1328,655,311,867,67
2016-04-15 05:00:00,332,861,2515,314,1217.3,1285,631,296,860,66
2016-04-15 06:00:00,324,863,2691,308,1268.0,1309,635,280,850,68
2016-04-15 07:00:00,324,838,2863,305,1358.0,1377,638,268,819,75
2016-04-15 08:00:00,348,904,3053,324,1539.5,1493,661,291,828,81
2016-04-15 09:00:00,372,941,3248,338,1645.7,1613,688,309,869,83
2016-04-15 10:00:00,359,950,3274,340,1654.2,1638,685,319,888,82
2016-04-15 11:00:00,368,948,3268,341,1655.3,1652,689,325,912,83
2016-04-15 12:00:00,344,874,3079,317,1524.8,1553,655,307,876,78
2016-04-15 13:00:00,359,921,3222,331,1625.0,1628,695,325,904,81
2016-04-15 14:00:00,356,912,3224,335,1625.2,1640,693,323,902,82
2016-04-15 15:00:00,360,903,3230,330,1592.6,1630,690,316,882,82
2016-04-15 16:00:00,368,926,3278,331,1587.2,1641,699,319,894,85
2016-04-15 17:00:00,369,925,3262,326,1523.3,1626,685,310,894,87
2016-04-15 18:00:00,384,970,3367,334,1561.9,1652,688,312,924,88
2016-04-15 19:00:00,378,949,3304,330,1542.6,1661,685,313,948,91
2016-04-15 20:00:00,360,907,3172,319,1477.2,1600,660,299,910,89
2016-04-15 21:00:00,345,865,3051,310,1433.2,1523,642,281,860,84
2016-04-15 22:00:00,327,850,2956,302,1387.9,1474,629,266,827,78
2016-04-15 23:00:00,330,837,2750,297,1346.2,1409,609,259,778,73
2016-04-16 00:00:00,316,802,2524,287,1272.8,1330,593,249,727,67
2016-04-16 01:00:00,328,821,2414,298,1250.4,1299,601,258,731,64
2016-04-16 02:00:00,340,845,2377,317,1253.9,1340,637,282,780,65
2016-04-16 03:00:00,342,858,2368,326,1259.0,1373,672,303,811,67
2016-04-16 04:00:00,348,873,2371,322,1242.6,1351,665,305,819,66
2016-04-16 05:00:00,336,877,2377,308,1203.3,1296,638,287,792,64
2016-04-16 06:00:00,318,850,2450,293,1201.7,1268,611,263,752,64
2016-04-16 07:00:00,304,816,2567,278,1231.6,1303,596,247,721,68
2016-04-16 08:00:00,320,853,2755,285,1319.9,1406,611,265,735,75
2016-04-16 09:00:00,330,864,2867,293,1367.4,1485,602,275,767,81
2016-04-16 10:00:00,326,863,2911,293,1366.6,1487,588,284,794,83
2016-04-16 11:00:00,328,863,2896,290,1349.8,1483,581,294,837,82
2016-04-16 12:00:00,308,845,2830,278,1303.8,1442,569,279,780,79